{"data":{"norad_id":68323,"epoch":"2026-09-20T04:38:09.124224Z","epoch_age_seconds":74918,"freshness":"FRESH","line1":"1 68323U 26059C   26263.19316116  .00019266  00000+0  57973-3 0  9998","line2":"2 68323  53.1565 157.0934 0001226  63.9596 296.1533 15.34407304 28052","mean_motion":15.34407304,"eccentricity":0.0001226,"inclination_deg":53.1565,"raan_deg":157.0934,"arg_perigee_deg":63.9596,"mean_anomaly_deg":296.1533,"bstar":0.00057973,"rev_number":2805,"period_min":93.847311352475,"perigee_km":461.84284691404,"apogee_km":463.52021561791,"semimajor_km":6840.818531266,"source":"CELESTRAK","updated_at":"2026-09-20T09:00:43.883059Z"}}